Valley City, ND

4:49 AM CST on December 06, 2019 (GMT -0600)
Valley City

Weather History for KBAC - November, 2019

Change the Weather History Date:

Wednesday, November 20, 2019

  Actual Average (WUND) Record (WUND)
Temperature  
Mean Temperature 32 °F -  
Max Temperature 37 °F - - (-1)
Min Temperature 24 °F - - (-1)
Degree Days  
Heating Degree Days 34    
Moisture  
Dew Point 32 °F    
Average Humidity 97    
Maximum Humidity 100    
Minimum Humidity 87    
Precipitation  
Precipitation 0.00 in - - ()
Sea Level Pressure  
Sea Level Pressure 29.94 in    
Wind  
Wind Speed 8 mph ()    
Max Wind Speed 21 mph    
Max Gust Speed 31 mph    
Visibility 8.6 miles    
Events Rain , Snow    
Averages and records for this station are not official NWS values.
T = Trace of Precipitation, MM = Missing Value Source: Averaged Metar Reports

Daily Weather History Graph

Daily Weather History Graph

Search for Another Location

Airport or City:

Astronomy

Nov. 20, 2019 Rise Set
Actual Time 7:42 AM CST 4:52 PM CST
Civil Twilight 7:08 AM CST 5:26 PM CST
Nautical Twilight 6:31 AM CST 6:03 PM CST
Astronomical Twilight 5:55 AM CST 6:39 PM CST
Moon No Moon Rise 2:20 PM CST (11/20)
Length of Visible Light 10h 17m
Length of Day
9h 10m
Last Quarter, 40% of the Moon is Illuminated
Nov 20
Last Quarter
Nov 26
New
Dec 4
First Quarter
Dec 11
Full
Dec 18
Last Quarter

Hourly Weather History & Observations

Time (CST) Temp. Windchill Dew Point Humidity Pressure Visibility Wind Dir Wind Speed Gust Speed Precip Events Conditions
12:15 AM 32.0 °F 26.4 °F 30.2 °F 93% 29.95 in 10.0 mi SE 5.8 mph - N/A   Overcast
12:35 AM 33.8 °F 28.6 °F 30.2 °F 87% 29.94 in 10.0 mi SE 5.8 mph - N/A   Overcast
12:55 AM 33.8 °F 28.6 °F 30.2 °F 87% 29.95 in 10.0 mi SE 5.8 mph - N/A   Overcast
1:15 AM 33.8 °F - 30.2 °F 87% 29.96 in 10.0 mi Calm Calm - N/A   Overcast
1:35 AM 32.0 °F 28.7 °F 30.2 °F 93% 29.95 in 10.0 mi ENE 3.5 mph - N/A   Overcast
1:55 AM 32.0 °F 27.5 °F 30.2 °F 93% 29.96 in 10.0 mi East 4.6 mph - N/A   Overcast
2:15 AM 32.0 °F 26.4 °F 30.2 °F 93% 29.96 in 10.0 mi ENE 5.8 mph - N/A   Overcast
2:35 AM 32.0 °F - 30.2 °F 93% 29.96 in 10.0 mi Calm Calm - N/A   Mostly Cloudy
2:55 AM 32.0 °F 27.5 °F 30.2 °F 93% 29.96 in 10.0 mi NE 4.6 mph - N/A   Scattered Clouds
3:15 AM 32.0 °F 26.4 °F 30.2 °F 93% 29.94 in 10.0 mi ENE 5.8 mph - N/A   Partly Cloudy
3:35 AM 32.0 °F 27.5 °F 30.2 °F 93% 29.95 in 10.0 mi ENE 4.6 mph - N/A   Mostly Cloudy
3:55 AM 32.0 °F 26.4 °F 30.2 °F 93% 29.95 in 10.0 mi East 5.8 mph - N/A   Overcast
4:15 AM 32.0 °F 25.6 °F 30.2 °F 93% 29.94 in 10.0 mi East 6.9 mph - N/A   Overcast
4:35 AM 32.0 °F 24.2 °F 32.0 °F 100% 29.93 in 10.0 mi East 9.2 mph - N/A   Overcast
4:55 AM 32.0 °F 24.8 °F 30.2 °F 93% 29.94 in 10.0 mi East 8.1 mph - N/A   Overcast
5:15 AM 32.0 °F 24.2 °F 32.0 °F 100% 29.94 in 10.0 mi ESE 9.2 mph - N/A   Overcast
5:35 AM 32.0 °F 24.2 °F 32.0 °F 100% 29.93 in 10.0 mi East 9.2 mph - N/A   Overcast
5:55 AM 33.8 °F 26.4 °F 32.0 °F 93% 29.94 in 10.0 mi East 9.2 mph - N/A   Overcast
6:15 AM 33.8 °F 25.8 °F 32.0 °F 93% 29.93 in 10.0 mi East 10.4 mph 16.1 mph N/A   Overcast
6:35 AM 33.8 °F 27.0 °F 32.0 °F 93% 29.94 in 10.0 mi East 8.1 mph - N/A   Overcast
6:55 AM 33.8 °F 25.8 °F 32.0 °F 93% 29.94 in 10.0 mi East 10.4 mph - N/A   Overcast
7:15 AM 33.8 °F 25.3 °F 32.0 °F 93% 29.93 in 10.0 mi East 11.5 mph - N/A   Overcast
7:35 AM 32.0 °F 23.0 °F 32.0 °F 100% 29.93 in 10.0 mi East 11.5 mph - N/A   Overcast
7:55 AM 32.0 °F 23.6 °F 32.0 °F 100% 29.94 in 10.0 mi East 10.4 mph - N/A   Overcast
8:15 AM 33.8 °F 25.8 °F 32.0 °F 93% 29.95 in 10.0 mi East 10.4 mph - N/A   Overcast
8:35 AM 33.8 °F 25.8 °F 32.0 °F 93% 29.94 in 10.0 mi East 10.4 mph - N/A   Mostly Cloudy
8:55 AM 33.8 °F 27.0 °F 33.8 °F 100% 29.94 in 10.0 mi East 8.1 mph - N/A   Mostly Cloudy
9:15 AM 33.8 °F 26.4 °F 33.8 °F 100% 29.94 in 10.0 mi East 9.2 mph - N/A   Overcast
9:35 AM 33.8 °F 27.7 °F 33.8 °F 100% 29.94 in 10.0 mi East 6.9 mph - N/A   Overcast
9:55 AM 33.8 °F 26.4 °F 33.8 °F 100% 29.94 in 10.0 mi East 9.2 mph - N/A   Overcast
10:15 AM 33.8 °F 26.4 °F 33.8 °F 100% 29.94 in 10.0 mi East 9.2 mph - N/A   Overcast
10:55 AM 35.6 °F 28.0 °F 35.6 °F 100% 29.93 in 10.0 mi East 10.4 mph - N/A   Overcast
11:15 AM 35.6 °F 27.5 °F 35.6 °F 100% 29.93 in 10.0 mi East 11.5 mph - N/A   Overcast
11:35 AM 37.4 °F 30.3 °F 35.6 °F 93% 29.93 in 10.0 mi East 10.4 mph 16.1 mph N/A   Overcast
11:55 AM 37.4 °F 30.3 °F 35.6 °F 93% 29.92 in 10.0 mi ENE 10.4 mph - N/A   Overcast
12:35 PM 37.4 °F 29.3 °F 35.6 °F 93% 29.91 in 10.0 mi ENE 12.7 mph - N/A   Overcast
12:55 PM 37.4 °F 29.8 °F 35.6 °F 93% 29.90 in 10.0 mi ENE 11.5 mph - N/A   Overcast
1:15 PM 37.4 °F 28.9 °F 35.6 °F 93% 29.90 in 10.0 mi ENE 13.8 mph - N/A   Overcast
1:35 PM 37.4 °F 28.9 °F 33.8 °F 87% 29.90 in 10.0 mi NE 13.8 mph - N/A   Overcast
1:55 PM 37.4 °F 29.8 °F 33.8 °F 87% 29.89 in 10.0 mi NE 11.5 mph 18.4 mph N/A   Overcast
2:15 PM 35.6 °F 27.5 °F 35.6 °F 100% 29.89 in 10.0 mi NNE 11.5 mph - N/A   Overcast
2:35 PM 35.6 °F 28.6 °F 35.6 °F 100% 29.89 in 10.0 mi NNE 9.2 mph 17.3 mph N/A   Overcast
2:55 PM 35.6 °F 28.0 °F 35.6 °F 100% 29.90 in 10.0 mi NNE 10.4 mph 17.3 mph N/A   Overcast
3:15 PM 35.6 °F 27.5 °F 35.6 °F 100% 29.90 in 10.0 mi NNE 11.5 mph - N/A   Overcast
3:35 PM 35.6 °F 27.5 °F 35.6 °F 100% 29.90 in 9.0 mi NNE 11.5 mph - N/A   Overcast
3:55 PM 33.8 °F 24.3 °F 33.8 °F 100% 29.91 in 5.0 mi NNE 13.8 mph - N/A Rain Light Rain
4:15 PM 33.8 °F 23.5 °F 33.8 °F 100% 29.91 in 4.0 mi NNE 16.1 mph - N/A Snow Light Snow
4:35 PM 32.0 °F 22.1 °F 32.0 °F 100% 29.91 in 2.5 mi NNE 13.8 mph 20.7 mph N/A Snow Light Snow
4:55 PM 32.0 °F 22.1 °F 32.0 °F 100% 29.92 in 3.0 mi NNE 13.8 mph - N/A Snow Light Snow
5:15 PM 32.0 °F 24.2 °F 32.0 °F 100% 29.93 in 4.0 mi NNE 9.2 mph 16.1 mph N/A Snow Light Snow
5:35 PM 32.0 °F 22.1 °F 32.0 °F 100% 29.93 in 6.0 mi NNE 13.8 mph - N/A Rain Light Rain
5:55 PM 32.0 °F 22.5 °F 32.0 °F 100% 29.93 in 6.0 mi NNE 12.7 mph - N/A Snow Light Snow
6:15 PM 32.0 °F 22.1 °F 32.0 °F 100% 29.94 in 6.0 mi North 13.8 mph - N/A Snow Light Snow
6:35 PM 32.0 °F 22.5 °F 32.0 °F 100% 29.95 in 4.0 mi North 12.7 mph - N/A Snow Light Snow
6:55 PM 32.0 °F 23.0 °F 32.0 °F 100% 29.95 in 3.0 mi North 11.5 mph - N/A Snow Light Snow
7:15 PM 32.0 °F 23.6 °F 32.0 °F 100% 29.96 in 4.0 mi North 10.4 mph - N/A Snow Light Snow
7:35 PM 32.0 °F 22.5 °F 32.0 °F 100% 29.95 in 5.0 mi North 12.7 mph - N/A Rain Light Rain
7:55 PM 32.0 °F 23.0 °F 32.0 °F 100% 29.96 in 6.0 mi North 11.5 mph - N/A Rain Light Rain
8:15 PM 32.0 °F 24.2 °F 32.0 °F 100% 29.97 in 10.0 mi North 9.2 mph - N/A Rain Light Rain
8:35 PM 32.0 °F 22.5 °F 32.0 °F 100% 29.96 in 10.0 mi North 12.7 mph - N/A   Overcast
8:55 PM 30.2 °F 18.9 °F 30.2 °F 100% 29.96 in 10.0 mi North 16.1 mph - N/A   Overcast
9:15 PM 30.2 °F 19.3 °F 30.2 °F 100% 29.96 in 10.0 mi North 15.0 mph 20.7 mph N/A Snow Light Snow
9:35 PM 30.2 °F 19.3 °F 30.2 °F 100% 29.97 in 10.0 mi North 15.0 mph 20.7 mph N/A Snow Light Snow
9:55 PM 30.2 °F 18.5 °F 30.2 °F 100% 29.97 in 8.0 mi North 17.3 mph 23.0 mph N/A Snow Light Snow
10:15 PM 30.2 °F 18.5 °F 30.2 °F 100% 29.98 in 3.0 mi North 17.3 mph - N/A Snow Light Snow
10:35 PM 30.2 °F 18.5 °F 30.2 °F 100% 29.98 in 4.0 mi North 17.3 mph 24.2 mph N/A Snow Light Snow
10:55 PM 28.4 °F 16.2 °F 28.4 °F 100% 29.99 in 3.0 mi North 17.3 mph 24.2 mph N/A Snow Light Snow
11:15 PM 28.4 °F 16.2 °F 28.4 °F 100% 29.99 in 4.0 mi North 17.3 mph 26.5 mph N/A Snow Light Snow
11:35 PM 26.6 °F 12.7 °F 26.6 °F 100% 29.99 in 10.0 mi North 20.7 mph - N/A Snow Light Snow
11:55 PM 24.8 °F 10.7 °F 24.8 °F 100% 30.00 in 10.0 mi North 19.6 mph 31.1 mph N/A Snow Light Snow